Main page
METAR-TAF:

METAR-TAF

Airports :

Gwalior, India

Rajmata Vijaya Raje Scindia Airport

latitude: 26-17-36N, longitude: 78-13-40E, elevation: 188 m

Current weather observation

The report was made 1 hour and 59 minutes ago, at 09:00 UTC
Wind 2 kt from the Northwest
Temperature 27°C
Humidity 21%
Pressure 1019 hPa
Visibility: 4000 m
Few clouds at a height of 25000 ft
haze

METAR: VIGR 180900Z 32002KT 4000 HZ FEW250 27/03 Q1019

Time: 16:29 (10:59 UTC)


TAF: missing

Weather observations and forecasts of more than 4000 airports (METAR and TAF reports).

The available stations are represented by yellow and red dots on the map.

Hover mouse over dot to see the name of the station.

Then click to see weather observations and forecasts.

To change the map : click on the green buttons with a black cross to zoom in, on the green button with a dash to zoom out, or on the green arrows for adjacent maps.


METAR-TAF: